Regional Weather Roundup
Issued by NWS

Home | Current Version | Previous Version | Text Only | Print | Product List | Glossary On
Versions: 1 2 3 4 5 6 7 8 9 10 11 12 13 14 15 16 17 18 19 20 21 22 23 24 25 26 27 28
000
ASUS46 KSEW 240910
RWRWA

WASHINGTON REGIONAL WEATHER ROUNDUP
NATIONAL WEATHER SERVICE SEATTLE WA
200 AM PDT THU APR 24 2014

NOTE:"FAIR" INDICATES FEW OR NO CLOUDS BELOW 12,000 FEET WITH NO
SIGNIFICANT WEATHER AND/OR OBSTRUCTIONS TO VISIBILITY.

WAZ505-507>509-241000-
SEATTLE, TACOMA, EVERETT, AND VICINITY

CITY           SKY/WX    TMP DP  RH WIND       PRES   REMARKS
EVERETT        LGT RAIN  48  45  89 SE13G21   29.61F FOG
BOEING FIELD   LGT RAIN  52  47  83 SE12      29.61F
RENTON         LGT RAIN  49  48  97 SE6       29.62F
SEATAC AIRPORT LGT RAIN  50  46  86 SE10      29.62F
JBLM-MCCHORD   LGT RAIN  50  50  99 S9        29.62S
PUYALLUP       LGT RAIN  50  48  93 S9G16     29.62F
JBLM-FT LEWIS  LGT RAIN  52  51  96 SE14      29.61S
TACOMA NARROWS LGT RAIN  49  47  93 S12       29.61F
$$

WAZ001-503-506-510-514-515-241000-
NORTH INTERIOR

CITY           SKY/WX    TMP DP  RH WIND       PRES   REMARKS
BELLINGHAM     RAIN      46  44  93 N6        29.59F FOG
FRIDAY HARBOR  LGT RAIN  49  48  97 E13G20    29.57F
EASTSOUND      RAIN      48  46  93 S5        29.55F
PORT ANGELES   LGT RAIN  47  45  93 CALM      29.52F
NAS WHIDBEY    LGT RAIN  52  46  80 SE20G28   29.57F
BURLINGTON     CLOUDY    48  46  93 E13       29.60F
$$

WAZ020-022-039-040-504-511-512-241000-
SOUTHWEST INTERIOR

CITY           SKY/WX    TMP DP  RH WIND       PRES   REMARKS
SHELTON        LGT RAIN  50  48  93 S9        29.57F FOG
OLYMPIA        LGT RAIN  52  50  93 S15G25    29.61F FOG
CHEHALIS       LGT RAIN  52  50  93 S13G22    29.65S
KELSO          CLOUDY    54  48  82 SE15G24   29.72S
VANCOUVER      LGT RAIN  54  48  80 S9G20     29.74F
SCAPPOOSE, OR  LGT RAIN  53  50  89 S10G18    29.71S
PORTLAND, OR   LGT RAIN  54  49  83 S26       29.74F
$$

WAZ021-516-517-241000-
WASHINGTON COAST

CITY           SKY/WX    TMP DP  RH WIND       PRES   REMARKS
FORKS          LGT RAIN  51  51 100 S12G21    29.52S FOG
HOQUIAM        CLOUDY    53  52  96 S24G31    29.59S FOG
ASTORIA, OR    LGT RAIN  53  50  89 S23G36    29.64S FOG
$$

WAZ019-023-024-040-518-519-241000-
CASCADE MOUNTAINS AND COLUMBIA GORGE

CITY           SKY/WX    TMP DP  RH WIND       PRES   REMARKS
STAMPEDE PASS  NOT AVBL
TROUTDALE, OR  CLOUDY    55  48  77 SW9G21    29.75S
THE DALLES, OR CLOUDY    49  47  93 NW6       29.75F
$$

WAZ026-027-041>044-520-521-241000-
EAST SLOPES

CITY           SKY/WX    TMP DP  RH WIND       PRES   REMARKS
OMAK           RAIN      46  43  89 S7        29.72F
WENATCHEE      LGT RAIN  48  44  86 SE9       29.70F
ELLENSBURG     CLOUDY    47  42  83 NE6       29.69F
YAKIMA         CLOUDY    52  44  74 SE10      29.70F
$$

WAZ028-034-035-241000-
COLUMBIA BASIN

CITY           SKY/WX    TMP DP  RH WIND       PRES   REMARKS
EPHRATA        RAIN      48  46  93 SE13      29.71S
MOSES LAKE     LGT RAIN  48  46  93 SE14      29.73F
HANFORD        NOT AVBL
PASCO          RAIN      51  48  89 SE12      29.76F
HERMISTON, OR  CLOUDY    54  46  74 S8        29.74F
$$

WAZ036>038-241000-
NORTHEAST WASHINGTON

CITY           SKY/WX    TMP DP  RH WIND       PRES   REMARKS
SPOKANE GEIGER LGT RAIN  41  39  93 SE7       29.79F
SPOKANE FELTS  LGT RAIN  44  41  89 CALM      29.81F
FAIRCHILD AFB  LGT RAIN  41  41  99 E9        29.78F
COEURDALENE,ID CLOUDY    41  37  87 S7        29.83S
DEER PARK      LGT RAIN  42  40  92 SE6       29.81F
$$

WAZ029>033-241000-
SOUTHEAST WASHINGTON

CITY           SKY/WX    TMP DP  RH WIND       PRES   REMARKS
PULLMAN        LGT RAIN  40  37  89 E14       29.82F
LEWISTON, ID   CLOUDY    44  38  79 E7        29.83F
WALLA WALLA    RAIN      51  44  77 SE14      29.79F
PENDLETON, OR  LGT RAIN  51  42  71 SW14      29.77F
$$



USA.gov is the U.S. government's official web portal to all federal, state and local government web resources and services.